Wind_Speed
12 11 10 9 9 8 8 7 7 6 6 5 4 4 4 4 3 3 2 1 1 1 1 2 3 4 4 4 5 6 6 7 7 8 9 9 9 10 10 11 12 12 12
13 13 12 11 10 10 9 8 8 7 7 6 5 5 4 5 4 3 3 2 2 2 2 3 4 4 5 5 6 6 7 8 8 8 9 9 10 10 11 11 12 12 12
14 14 13 12 11 10 10 9 9 8 8 7 7 6 6 5 5 4 4 4 4 4 4 4 5 5 6 6 7 7 8 8 9 9 10 10 11 11 11 11 12 12 13
16 15 15 14 13 12 11 10 10 10 9 9 8 7 7 7 6 5 5 5 5 5 5 6 6 7 7 7 7 8 9 9 10 10 11 11 11 12 12 12 13 14 14
18 17 16 15 14 13 12 11 11 11 11 10 9 9 8 8 7 7 6 7 7 7 7 7 8 8 8 8 9 9 10 11 11 11 12 12 13 13 13 13 14 15 16
19 18 18 17 16 15 14 13 12 12 12 11 11 10 10 9 8 8 8 8 8 8 8 9 10 9 9 9 10 11 11 11 12 12 13 14 14 14 14 15 15 16 17
21 20 19 18 17 16 15 14 13 13 13 13 12 12 11 11 10 10 10 9 9 9 10 10 11 10 11 11 11 12 12 13 13 14 14 15 15 15 16 16 17 17 18
23 22 21 20 19 18 17 16 15 15 14 14 14 14 13 13 12 12 12 11 11 11 11 11 12 12 13 13 13 13 14 14 15 15 16 16 17 17 17 18 19 19 19
25 24 23 22 20 20 19 18 17 17 16 16 16 16 16 15 15 14 14 14 13 13 13 13 13 14 14 15 15 16 16 16 16 17 17 17 18 18 19 19 20 20 21
27 26 25 24 22 22 21 20 19 19 18 18 17 17 17 16 16 16 16 16 16 16 16 15 15 16 16 17 17 17 18 18 19 19 19 19 19 20 21 21 21 22 22
29 28 27 26 25 24 23 22 21 21 20 20 19 18 18 18 18 18 18 18 18 18 17 17 17 18 18 19 19 20 20 20 20 21 21 21 21 22 22 23 23 24 24
32 31 29 28 27 26 24 24 23 23 22 22 21 20 20 20 20 20 20 20 20 20 19 19 20 20 20 21 21 21 22 22 22 23 23 24 24 24 24 25 25 25 25
34 33 31 30 29 28 26 26 25 25 24 23 23 22 22 22 22 22 22 22 22 21 21 21 22 22 22 23 23 23 24 24 24 25 25 26 26 26 26 26 26 26 26
35 34 33 32 31 29 28 27 27 26 26 25 25 24 24 23 23 23 24 24 24 24 24 24 24 24 24 25 25 25 26 26 26 27 27 27 27 28 28 28 27 28 28
36 35 34 33 32 31 30 29 29 28 28 27 27 27 26 26 25 25 26 26 26 26 26 26 27 27 27 27 27 27 27 28 28 28 29 29 29 29 29 29 29 29 29
38 37 35 34 33 33 32 31 31 30 30 29 29 28 28 28 28 28 28 28 28 28 28 28 28 28 28 29 29 29 30 30 30 30 30 30 30 30 30 30 30 30 31
39 39 37 35 35 34 34 33 32 32 31 31 31 31 30 30 30 30 30 30 30 30 30 30 30 30 30 30 30 31 31 31 31 31 31 31 31 31 30 31 31 32 32
40 39 38 36 35 35 35 34 34 33 33 32 32 32 32 32 31 31 31 32 32 32 32 32 31 31 32 32 32 32 32 32 32 32 32 32 32 32 32 33 33 33 34
41 40 39 38 37 36 36 35 35 35 35 35 34 34 34 33 33 33 34 34 34 35 34 34 34 34 34 34 34 34 34 33 33 33 33 33 33 34 34 35 35 35 35
43 42 41 40 39 38 37 36 36 37 36 36 37 36 36 36 36 36 36 37 36 37 37 36 36 36 36 35 35 35 35 35 34 34 35 35 35 36 36 37 36 37 37
44 44 43 41 41 40 39 39 39 38 38 38 39 38 39 39 39 39 38 38 38 38 38 38 38 37 37 37 36 36 36 36 37 37 37 37 37 37 37 38 38 38 38
45 44 44 43 42 42 41 40 40 39 39 39 40 41 41 41 41 40 41 41 41 40 40 39 39 39 38 38 38 38 38 37 38 38 38 39 39 38 38 38 39 39 39
46 45 44 44 43 43 42 42 42 42 41 41 41 41 41 42 42 42 41 42 42 42 41 41 41 40 40 40 39 39 40 39 38 39 39 40 40 40 39 39 40 41 41
46 46 45 45 45 44 44 44 44 43 42 42 42 42 42 42 42 42 42 43 43 42 42 42 42 41 40 40 40 41 41 41 40 39 40 41 42 41 41 41 42 42 43
46 47 46 46 46 46 46 46 45 44 44 43 42 41 41 41 42 42 42 43 43 42 42 41 42 41 41 41 41 41 42 42 42 42 41 41 42 42 43 43 43 44 45
47 47 47 46 46 47 47 47 46 46 46 45 43 43 42 42 42 41 41 41 42 42 42 42 42 42 42 41 42 42 43 43 43 44 43 42 42 42 43 44 44 45 46
Wind_Direction
227 228 229 227 226 226 226 226 227 228 225 221 219 219 216 208 201 202 202 212 238 272 316 336 340 340 339 340 341 344 346 346 343 340 339 338 338 336 336 335 335 334 332
228 229 229 228 230 229 228 230 230 231 231 231 229 230 227 222 217 221 229 239 259 278 300 316 325 329 330 329 330 335 336 337 336 334 335 336 334 332 333 333 333 332 331
230 230 231 229 230 227 228 231 234 236 238 238 238 236 236 237 240 246 253 260 271 283 296 305 312 317 318 317 322 327 329 330 329 328 330 330 330 330 330 330 330 330 329
229 230 232 230 230 232 232 233 236 239 241 243 244 243 245 246 251 258 261 267 279 285 290 295 300 307 309 314 319 323 326 326 326 325 326 325 325 325 325 325 325 325 325
231 232 233 232 231 234 235 235 238 241 242 243 245 247 250 251 254 260 266 273 280 285 288 291 296 301 305 309 313 316 319 321 322 323 323 322 321 321 322 321 322 322 322
232 232 233 233 232 233 235 237 239 243 244 243 246 249 252 255 258 264 268 272 277 281 285 289 293 297 302 305 309 312 315 317 318 319 319 318 317 316 317 317 318 319 319
234 233 233 233 234 235 237 239 241 244 245 243 246 250 254 258 262 267 269 271 274 277 283 286 292 296 300 302 303 306 308 311 314 315 315 314 313 313 313 314 314 315 316
235 235 235 234 234 235 237 239 240 242 244 245 248 251 254 258 262 266 270 272 273 276 280 286 290 294 299 300 301 303 305 307 310 312 312 311 310 310 310 310 312 313 313
235 235 236 235 236 237 238 239 241 243 245 248 250 252 254 258 263 266 269 271 272 276 281 286 290 292 295 298 300 301 302 305 307 309 308 308 308 308 308 309 310 311 312
234 235 236 237 237 239 240 240 242 244 247 249 251 254 256 258 262 266 269 271 273 276 280 284 287 289 292 295 298 300 301 302 305 306 306 306 306 307 307 307 308 309 310
234 235 236 237 239 240 241 241 243 245 247 250 251 254 256 259 263 267 270 272 274 277 280 282 285 288 290 293 295 298 300 300 301 303 304 304 304 305 305 306 306 307 308
235 236 237 238 240 242 242 243 244 246 248 251 251 256 259 261 264 267 270 272 275 277 278 280 283 285 287 290 293 295 297 299 300 301 301 302 303 303 303 304 304 305 306
235 236 237 239 241 243 244 245 246 247 248 251 253 256 260 263 265 267 270 272 274 276 277 280 282 284 286 288 290 292 295 297 299 299 299 300 300 300 301 302 302 303 304
233 235 237 239 241 243 244 246 247 248 249 251 253 256 259 263 266 268 270 272 273 275 277 279 281 283 285 286 288 290 292 295 297 298 299 299 300 299 299 300 300 300 301
233 235 237 240 242 243 244 246 247 249 250 252 255 257 260 262 264 267 270 273 274 275 276 278 281 283 284 285 287 289 291 293 295 296 297 298 298 299 299 298 299 299 300
234 235 237 240 242 243 245 246 247 249 251 252 254 257 259 261 264 266 269 272 274 275 277 279 280 282 283 284 286 288 290 292 293 294 295 296 297 297 297 299 299 299 300
234 235 236 238 241 243 244 245 247 249 252 253 254 257 260 262 264 267 269 271 274 275 277 278 279 281 282 284 286 288 289 291 292 292 293 294 295 296 296 297 299 300 300
234 235 236 237 240 242 244 246 248 250 252 253 255 257 260 263 266 268 269 270 272 274 276 277 278 280 281 283 284 286 288 290 291 291 292 293 294 294 295 296 297 298 299
234 235 237 238 241 243 244 247 249 251 253 254 256 257 260 262 265 267 269 271 272 273 274 275 277 279 281 281 282 284 286 287 289 289 290 292 293 293 294 295 296 297 298
235 236 238 240 241 243 245 248 250 252 254 256 257 259 261 262 264 266 268 269 270 272 273 274 276 279 281 281 282 283 284 285 287 287 289 290 292 293 294 295 295 296 297
236 237 238 240 242 244 247 249 251 253 254 256 257 260 262 264 265 266 267 268 269 271 272 274 275 277 280 281 282 283 284 284 286 287 288 289 291 292 293 293 294 295 296
237 238 239 241 243 246 248 251 252 254 256 256 259 261 262 264 265 267 267 268 269 271 273 274 276 277 278 279 281 283 284 285 285 286 288 289 290 291 292 292 293 294 295
237 238 240 242 244 246 248 251 252 255 257 259 260 262 263 263 265 267 267 269 270 272 274 275 276 277 278 279 281 283 283 283 284 285 287 288 289 290 291 292 292 293 294
237 239 240 243 245 247 249 251 254 256 259 261 261 263 264 265 266 267 267 268 269 271 273 274 275 276 277 279 281 282 283 283 283 285 286 288 288 289 291 292 292 292 294
238 240 242 244 246 248 250 252 254 257 259 260 261 262 263 265 267 267 268 269 270 270 272 273 274 275 278 279 280 281 282 283 284 286 287 287 288 289 291 291 292 292 293
239 240 242 244 246 248 249 251 254 257 258 259 261 262 263 266 268 267 269 269 271 272 273 273 274 276 278 279 280 282 282 284 285 287 288 288 288 289 290 291 292 293 293
Height
5868 5869 5871 5872 5873 5874 5875 5876 5876 5877 5877 5878 5878 5878 5879 5879 5879 5880 5880 5880 5880 5880 5880 5880 5880 5879 5879 5878 5878 5878 5877 5876 5876 5875 5874 5873 5872 5871 5870 5869 5868 5867 5866
5867 5868 5869 5871 5872 5873 5874 5875 5875 5876 5877 5877 5878 5878 5878 5879 5879 5879 5879 5880 5880 5880 5880 5879 5879 5879 5878 5878 5878 5877 5876 5876 5875 5874 5873 5872 5871 5870 5869 5868 5867 5866 5864
5865 5866 5868 5869 5870 5871 5873 5874 5874 5875 5876 5876 5877 5877 5878 5878 5878 5879 5879 5879 5879 5879 5879 5879 5879 5878 5878 5877 5877 5876 5876 5875 5874 5873 5873 5872 5870 5869 5868 5867 5866 5864 5863
5863 5864 5866 5867 5868 5870 5871 5872 5873 5874 5875 5875 5876 5876 5877 5877 5877 5878 5878 5878 5878 5878 5878 5878 5878 5877 5877 5876 5876 5876 5875 5874 5873 5872 5871 5870 5869 5868 5867 5865 5864 5863 5861
5860 5862 5863 5865 5866 5868 5869 5870 5871 5872 5873 5874 5874 5875 5876 5876 5877 5877 5877 5878 5877 5877 5877 5877 5877 5876 5876 5875 5875 5874 5874 5873 5872 5871 5870 5869 5868 5866 5865 5864 5862 5861 5859
5857 5859 5861 5863 5864 5866 5867 5868 5869 5870 5871 5872 5873 5874 5874 5875 5875 5876 5876 5876 5876 5876 5876 5876 5876 5875 5875 5874 5874 5873 5872 5871 5870 5870 5869 5867 5866 5865 5863 5862 5860 5858 5857
5854 5856 5858 5860 5862 5863 5865 5866 5867 5868 5869 5870 5871 5872 5872 5873 5874 5874 5874 5875 5875 5875 5874 5874 5874 5873 5873 5872 5872 5871 5870 5870 5869 5868 5867 5865 5864 5862 5861 5859 5858 5856 5854
5851 5853 5855 5856 5858 5860 5862 5863 5864 5865 5867 5868 5869 5869 5870 5871 5871 5872 5872 5872 5873 5873 5872 5872 5872 5872 5871 5870 5870 5869 5868 5868 5866 5865 5864 5863 5861 5860 5858 5857 5855 5853 5851
5846 5849 5851 5853 5855 5857 5859 5860 5861 5863 5864 5865 5866 5867 5868 5868 5869 5869 5870 5870 5870 5870 5870 5870 5870 5870 5869 5868 5867 5867 5866 5865 5864 5863 5861 5860 5858 5857 5855 5854 5852 5850 5848
5842 5845 5847 5850 5852 5854 5855 5857 5858 5860 5861 5862 5863 5864 5865 5865 5866 5867 5867 5867 5868 5868 5868 5867 5867 5867 5866 5866 5865 5864 5863 5862 5861 5860 5858 5857 5855 5853 5852 5850 5848 5846 5844
5837 5840 5843 5845 5848 5850 5852 5853 5855 5856 5857 5858 5859 5860 5861 5862 5863 5863 5864 5864 5864 5865 5864 5864 5864 5864 5863 5862 5862 5861 5860 5859 5858 5856 5855 5853 5851 5850 5848 5846 5844 5842 5840
5832 5835 5838 5841 5843 5846 5848 5849 5851 5852 5854 5855 5856 5857 5858 5859 5859 5860 5860 5861 5861 5861 5861 5861 5860 5860 5859 5859 5858 5857 5856 5855 5854 5852 5851 5849 5847 5846 5844 5842 5840 5838 5836
5826 5830 5833 5836 5838 5841 5843 5845 5846 5848 5849 5851 5852 5853 5854 5855 5855 5856 5856 5856 5857 5857 5857 5857 5856 5856 5855 5854 5854 5853 5852 5851 5849 5848 5846 5844 5843 5841 5839 5837 5835 5833 5831
5820 5824 5827 5830 5833 5836 5838 5840 5842 5843 5845 5846 5847 5848 5849 5850 5851 5851 5852 5852 5852 5852 5852 5852 5852 5851 5850 5850 5849 5848 5847 5846 5844 5843 5841 5839 5837 5835 5834 5832 5830 5828 5826
5814 5817 5821 5824 5827 5830 5832 5834 5836 5838 5840 5841 5842 5843 5844 5845 5846 5846 5847 5847 5847 5847 5847 5847 5846 5846 5845 5844 5844 5843 5842 5840 5839 5837 5836 5834 5832 5830 5828 5826 5824 5822 5820
5807 5811 5814 5817 5821 5823 5826 5828 5831 5832 5834 5836 5837 5838 5839 5840 5840 5841 5841 5841 5842 5841 5841 5841 5841 5840 5839 5838 5838 5837 5836 5834 5833 5831 5830 5828 5826 5824 5822 5820 5818 5816 5814
5800 5804 5807 5811 5814 5817 5820 5822 5824 5826 5828 5830 5831 5832 5833 5834 5834 5835 5835 5835 5835 5835 5835 5835 5834 5834 5833 5832 5831 5830 5829 5828 5827 5825 5823 5822 5820 5818 5816 5814 5812 5810 5808
5792 5796 5800 5804 5807 5810 5813 5815 5818 5820 5821 5823 5825 5826 5827 5827 5828 5828 5829 5829 5829 5828 5828 5828 5828 5827 5826 5826 5825 5824 5823 5821 5820 5818 5817 5815 5813 5812 5810 5808 5806 5803 5801
5784 5788 5793 5796 5800 5803 5806 5808 5811 5813 5814 5816 5817 5819 5820 5820 5820 5821 5821 5822 5821 5821 5821 5821 5821 5820 5819 5819 5818 5817 5816 5815 5813 5812 5810 5808 5807 5805 5803 5801 5799 5797 5794
5775 5780 5785 5789 5792 5795 5798 5801 5803 5805 5807 5808 5809 5811 5812 5812 5813 5813 5814 5814 5813 5813 5813 5813 5813 5812 5811 5811 5810 5809 5809 5807 5806 5805 5803 5802 5800 5798 5796 5794 5792 5789 5786
5767 5772 5776 5781 5784 5788 5790 5793 5794 5796 5798 5800 5801 5802 5803 5804 5804 5805 5805 5805 5805 5805 5805 5804 5804 5804 5803 5802 5802 5802 5801 5800 5798 5797 5795 5794 5792 5790 5788 5786 5784 5781 5778
5759 5763 5768 5772 5776 5779 5782 5784 5786 5788 5790 5791 5792 5793 5794 5794 5795 5796 5796 5796 5796 5796 5796 5796 5796 5795 5795 5794 5794 5793 5793 5792 5790 5789 5787 5786 5784 5782 5780 5777 5775 5772 5770
5749 5754 5758 5763 5766 5769 5772 5775 5777 5779 5780 5782 5783 5783 5784 5784 5785 5786 5786 5787 5787 5787 5787 5787 5787 5787 5786 5786 5785 5784 5783 5783 5782 5781 5779 5777 5775 5773 5771 5769 5766 5764 5761
5740 5745 5749 5753 5757 5760 5763 5765 5767 5769 5771 5772 5773 5774 5774 5775 5776 5777 5777 5777 5777 5777 5777 5778 5778 5777 5777 5777 5776 5775 5774 5773 5772 5772 5771 5768 5766 5764 5762 5760 5757 5755 5752
5730 5735 5740 5744 5747 5750 5753 5755 5757 5759 5760 5762 5763 5764 5765 5766 5766 5767 5767 5767 5767 5768 5768 5768 5768 5768 5768 5767 5767 5766 5764 5763 5762 5761 5761 5760 5757 5755 5752 5750 5747 5745 5742
5721 5725 5730 5734 5737 5740 5742 5745 5747 5749 5750 5752 5753 5755 5756 5756 5756 5757 5757 5758 5758 5758 5758 5759 5759 5758 5758 5758 5757 5756 5755 5754 5752 5751 5750 5749 5748 5745 5742 5740 5737 5734 5731